When you browse on this site, cookies collect data to enhance your experience and personalize the content and advertising you see.
Visit our Privacy Policy to learn more. By continuing to use the site, you agree to this use of cookies and data.
  • In Czech Republic
  • List of Countries
  • For 7 days
  • Water Temperature
  • Satellite Maps
  • Weather Map
  • Weather Widgets
  • user-avatar
    Login

    Hourly Weather Fedorovka

    Today, 22 May, Wednesday

    Time Temperature Precipitation Wind Pressure Humidity
    00:00 +14°C° 0 mm 3 mps 745 mmHg 94%
    01:00 +13°C° 0 mm 3 mps 745 mmHg 95%
    02:00 +14°C° 0 mm 2 mps 744 mmHg 95%
    03:00 +14°C° 0 mm 2 mps 744 mmHg 95%
    04:00 +14°C° 0 mm 2 mps 744 mmHg 95%
    05:00 +14°C° 0 mm 2 mps 744 mmHg 95%
    06:00 +15°C° 0 mm 2 mps 744 mmHg 90%
    07:00 +17°C° 0 mm 2 mps 744 mmHg 85%
    08:00 +18°C° 0 mm 2 mps 744 mmHg 79%
    09:00 +21°C° 0 mm 1 mps 744 mmHg 72%
    10:00 +23°C° 0 mm 1 mps 744 mmHg 65%
    11:00 +23°C° 0 mm 0 mps 743 mmHg 59%
    12:00 +25°C° 0 mm 1 mps 743 mmHg 55%
    13:00 +25°C° 0 mm 1 mps 743 mmHg 52%
    14:00 +26°C° 0 mm 1 mps 743 mmHg 49%
    15:00 +25°C° 0 mm 1 mps 742 mmHg 51%
    16:00 +25°C° 0 mm 1 mps 742 mmHg 53%
    17:00 +25°C° 0 mm 1 mps 742 mmHg 55%
    18:00 +23°C° 0 mm 1 mps 742 mmHg 61%
    19:00 +19°C° 0 mm 0 mps 742 mmHg 67%
    20:00 +17°C° 0 mm 0 mps 741 mmHg 73%
    21:00 +17°C° 0.1 mm 0 mps 741 mmHg 76%
    22:00 +16°C° 0.1 mm 0 mps 741 mmHg 80%
    23:00 +15°C° 0.1 mm 0 mps 741 mmHg 83%

    Tomorrow, 23 May, Thursday

    Time Temperature Precipitation Wind Pressure Humidity
    00:00 +15°C° 0.5 mm 0 mps 741 mmHg 84%
    01:00 +16°C° 0.5 mm 1 mps 741 mmHg 86%
    02:00 +15°C° 0.5 mm 1 mps 741 mmHg 87%
    03:00 +15°C° 0.2 mm 1 mps 741 mmHg 87%
    04:00 +16°C° 0.2 mm 1 mps 741 mmHg 87%
    05:00 +16°C° 0.2 mm 1 mps 741 mmHg 86%
    06:00 +18°C° 0 mm 1 mps 741 mmHg 81%
    07:00 +20°C° 0 mm 1 mps 741 mmHg 75%
    08:00 +22°C° 0 mm 1 mps 741 mmHg 70%
    09:00 +23°C° 0 mm 2 mps 741 mmHg 64%
    10:00 +24°C° 0 mm 2 mps 741 mmHg 58%
    11:00 +25°C° 0 mm 2 mps 741 mmHg 52%
    12:00 +26°C° 0 mm 2 mps 741 mmHg 52%
    13:00 +26°C° 0 mm 3 mps 741 mmHg 52%
    14:00 +26°C° 0 mm 3 mps 741 mmHg 52%
    15:00 +26°C° 0 mm 3 mps 740 mmHg 55%
    16:00 +26°C° 0 mm 3 mps 740 mmHg 58%
    17:00 +25°C° 0 mm 3 mps 740 mmHg 61%
    18:00 +24°C° 0 mm 2 mps 740 mmHg 66%
    19:00 +21°C° 0 mm 2 mps 740 mmHg 71%
    20:00 +20°C° 0 mm 1 mps 741 mmHg 75%
    21:00 +19°C° 0 mm 1 mps 741 mmHg 77%
    22:00 +18°C° 0 mm 1 mps 741 mmHg 79%
    23:00 +18°C° 0 mm 1 mps 741 mmHg 81%

    Day after tomorrow, 24 May, Friday

    Time Temperature Precipitation Wind Pressure Humidity
    00:00 +16°C° 0 mm 1 mps 741 mmHg 83%
    01:00 +16°C° 0 mm 1 mps 741 mmHg 85%
    02:00 +15°C° 0 mm 1 mps 741 mmHg 87%
    03:00 +16°C° 0 mm 1 mps 741 mmHg 87%
    04:00 +16°C° 0 mm 1 mps 741 mmHg 87%
    05:00 +16°C° 0 mm 1 mps 741 mmHg 87%
    06:00 +19°C° 0 mm 1 mps 742 mmHg 82%
    07:00 +21°C° 0 mm 1 mps 742 mmHg 77%
    08:00 +22°C° 0 mm 1 mps 742 mmHg 71%
    09:00 +23°C° 1 mm 1 mps 742 mmHg 67%
    10:00 +25°C° 1 mm 1 mps 742 mmHg 63%
    11:00 +26°C° 1 mm 1 mps 742 mmHg 59%
    12:00 +26°C° 1.2 mm 1 mps 742 mmHg 59%
    13:00 +26°C° 1.2 mm 1 mps 742 mmHg 59%
    14:00 +26°C° 1.2 mm 1 mps 742 mmHg 60%
    15:00 +25°C° 1.2 mm 1 mps 742 mmHg 65%
    16:00 +24°C° 1.2 mm 2 mps 741 mmHg 70%
    17:00 +24°C° 1.2 mm 2 mps 741 mmHg 75%
    18:00 +21°C° 0.7 mm 3 mps 741 mmHg 80%
    19:00 +20°C° 0.7 mm 3 mps 741 mmHg 85%
    20:00 +18°C° 0.7 mm 3 mps 741 mmHg 89%
    21:00 +18°C° 0.9 mm 3 mps 741 mmHg 92%
    22:00 +17°C° 0.9 mm 3 mps 741 mmHg 94%
    23:00 +16°C° 0.9 mm 3 mps 741 mmHg 96%

    25 May, Saturday

    Time Temperature Precipitation Wind Pressure Humidity
    00:00 +16°C° 0.4 mm 3 mps 741 mmHg 96%
    01:00 +16°C° 0.4 mm 2 mps 741 mmHg 95%
    02:00 +16°C° 0.4 mm 2 mps 740 mmHg 95%
    03:00 +16°C° 0 mm 2 mps 740 mmHg 94%
    04:00 +17°C° 0 mm 2 mps 740 mmHg 92%
    05:00 +17°C° 0 mm 2 mps 740 mmHg 90%
    06:00 +18°C° 0.2 mm 2 mps 740 mmHg 85%
    07:00 +19°C° 0.2 mm 2 mps 740 mmHg 81%
    08:00 +21°C° 0.2 mm 3 mps 740 mmHg 76%
    09:00 +22°C° 0.3 mm 3 mps 739 mmHg 70%
    10:00 +24°C° 0.3 mm 3 mps 739 mmHg 65%
    11:00 +25°C° 0.3 mm 3 mps 739 mmHg 60%
    12:00 +25°C° 1.4 mm 3 mps 739 mmHg 62%
    13:00 +25°C° 1.4 mm 3 mps 739 mmHg 65%
    14:00 +24°C° 1.4 mm 3 mps 738 mmHg 68%
    15:00 +22°C° 1.1 mm 3 mps 738 mmHg 73%
    16:00 +23°C° 1.1 mm 2 mps 738 mmHg 78%
    17:00 +22°C° 1.1 mm 1 mps 738 mmHg 83%
    18:00 +19°C° 0.4 mm 2 mps 738 mmHg 86%
    19:00 +18°C° 0.4 mm 2 mps 738 mmHg 89%
    20:00 +17°C° 0.4 mm 2 mps 738 mmHg 92%
    21:00 +17°C° 0.1 mm 2 mps 738 mmHg 93%
    22:00 +16°C° 0.1 mm 2 mps 738 mmHg 94%
    23:00 +16°C° 0.1 mm 2 mps 738 mmHg 95%

    26 May, Sunday

    Time Temperature Precipitation Wind Pressure Humidity
    00:00 +14°C° 0 mm 3 mps 739 mmHg 94%
    01:00 +13°C° 0 mm 3 mps 739 mmHg 94%
    02:00 +12°C° 0 mm 3 mps 739 mmHg 93%
    03:00 +12°C° 0 mm 3 mps 739 mmHg 93%
    04:00 +12°C° 0 mm 3 mps 740 mmHg 93%
    05:00 +11°C° 0 mm 3 mps 740 mmHg 93%
    06:00 +12°C° 0 mm 3 mps 740 mmHg 88%
    07:00 +14°C° 0 mm 3 mps 740 mmHg 82%
    08:00 +16°C° 0 mm 3 mps 741 mmHg 77%
    09:00 +17°C° 0 mm 4 mps 741 mmHg 71%
    10:00 +18°C° 0 mm 4 mps 741 mmHg 66%
    11:00 +19°C° 0 mm 4 mps 741 mmHg 60%
    12:00 +19°C° 0 mm 4 mps 741 mmHg 59%
    13:00 +20°C° 0 mm 4 mps 740 mmHg 57%
    14:00 +20°C° 0 mm 4 mps 740 mmHg 55%
    15:00 +20°C° 0 mm 4 mps 740 mmHg 58%
    16:00 +19°C° 0 mm 4 mps 740 mmHg 61%
    17:00 +19°C° 0 mm 4 mps 740 mmHg 65%
    18:00 +18°C° 0 mm 3 mps 740 mmHg 70%
    19:00 +16°C° 0 mm 3 mps 740 mmHg 76%
    20:00 +15°C° 0 mm 2 mps 740 mmHg 81%
    21:00 +14°C° 0 mm 2 mps 740 mmHg 85%
    22:00 +14°C° 0 mm 2 mps 740 mmHg 88%
    23:00 +13°C° 0 mm 2 mps 740 mmHg 91%

    27 May, Monday

    Time Temperature Precipitation Wind Pressure Humidity
    00:00 +12°C° 1.7 mm 3 mps 740 mmHg 92%
    01:00 +12°C° 1.7 mm 3 mps 740 mmHg 92%
    02:00 +11°C° 1.7 mm 4 mps 739 mmHg 93%
    03:00 +11°C° 0.2 mm 4 mps 740 mmHg 93%
    04:00 +10°C° 0.2 mm 4 mps 740 mmHg 93%
    05:00 +10°C° 0.2 mm 4 mps 740 mmHg 93%
    06:00 +9°C° 0 mm 5 mps 741 mmHg 86%
    07:00 +10°C° 0 mm 6 mps 741 mmHg 80%
    08:00 +11°C° 0 mm 6 mps 742 mmHg 74%
    09:00 +12°C° 0 mm 7 mps 742 mmHg 69%
    10:00 +14°C° 0 mm 7 mps 742 mmHg 65%
    11:00 +15°C° 0 mm 7 mps 743 mmHg 60%
    12:00 +15°C° 0 mm 7 mps 743 mmHg 62%
    13:00 +15°C° 0 mm 6 mps 743 mmHg 63%
    14:00 +15°C° 0 mm 6 mps 743 mmHg 65%
    15:00 +15°C° 0 mm 6 mps 744 mmHg 65%
    16:00 +15°C° 0 mm 5 mps 744 mmHg 66%
    17:00 +15°C° 0 mm 5 mps 744 mmHg 67%
    18:00 +14°C° 0 mm 4 mps 744 mmHg 72%
    19:00 +13°C° 0 mm 3 mps 745 mmHg 78%
    20:00 +12°C° 0 mm 2 mps 745 mmHg 83%
    21:00 +12°C° 0 mm 2 mps 745 mmHg 86%
    22:00 +10°C° 0 mm 2 mps 746 mmHg 88%
    23:00 +10°C° 0 mm 1 mps 746 mmHg 90%
    Show more